Showing default

COSMOS 2090, 20735

Orbit data source: Space-Track

COSMOS 2090, 20735 is a payload satellite owned by UNKS (CIS) in LEO that was launched on Wed, 08 Aug 1990 UTC via a TSIKLON-3 launch vehicle from the Plesetsk Missile And Space Complex (PKMTR). Payload-class satellites include a variety of spacecraft equipped with specific instruments for various scientific and technological missions. These include communications satellites like Starlink; space stations such as the ISS; scientific satellites like the Hubble; Earth observation satellites from companies like Planet Labs, Umbra, and HawkEye 360; GPS; miniature CubeSats for education and research; and military/defense satellites.

Loading next visibility...
Identifier
20735, 1990-070A
Orbit
LEO
Country
Flag of CISCIS
Related business
Manufacturer
NPO PM
Mission
Defense Communications
Bus & Motor
STRELA-3, Unknown motor
Mass
225 kg wet, 225 kg dry
Launch date (UTC)
1990-08-08 (35 years ago)
Launch vehicle
TSIKLON-3
Launch site
Plesetsk Missile And Space Complex (PKMTR)
Object type
Payload
Rocket body
Debris
Shape & HBR
Cyl, 0.8 m
Radar Cross Section
1.257 m², Large (>1 m²)

Expand to show TLE details & history
Last TLE update: 14 hours ago

TLE from 14 hours ago
0 COSMOS 2090
1 20735U 90070A   26036.33109501  .00000028  00000-0  93289-4 0  9997
2 20735  82.5699 356.9420 0014636   9.1519 143.9261 12.65361576639255
Epoch: 2026-02-05T07:56Z
TLE epoch observation values (Epoch: 2026-02-05T07:56:46.608Z)
Latitude
26.61366°
Longitude
-81.46515°
Altitude
1,413.204 km
Speed
7.152 km/s
True Right ascension
11h 32m 51s
True Declination
26° 29' 16"
Sunlit
Object was in full shadow at epoch
Visualization orbit readout
Latitude
Unknown
Longitude
Unknown
Altitude
Unknown
Speed
Unknown
Apparent Right ascension
Unknown
Apparent Declination
Unknown
Sunlit
N/A
Visualization observer readout
Local Sidereal Time
23:42:26
Azimuth
Unknown
Elevation
Unknown
Doppler factor
Unknown
Orbital elements
Apogee altitude
1,409.591 km
Perigee altitude
1,386.828 km
Semi-major axis
7,776.346 km
Eccentricity
0.00146
Inclination
82.5699°
RAAN
356.942°
Arg. of periapsis
9.1519°
True anomaly
144.02471°
Mean anomaly
143.9261°
Eccentric anomaly
143.97542°
Mean motion
3.16504 °/min
Orbital period
113.74 mins
BSTAR
0.000093289
Loading maneuver chart data...
Computing Atmospheric mass density...
Loading historical data...
Loading historical data...
Loading historical data...
Loading historical data...
Loading historical data...
Loading historical data...
Loading historical data...

Documentation

Showing up to 5 results
|